Find Zi Yuan 3-02

NORAD ID: 41556 Int'l Des: 2016-033 Owner: GCDX/ZZWYZ Country: CN operational
LEOCIRCULARRETROGRADESSO

リアルタイム位置

3D地球を読み込み中...

Zi Yuan 3-02について

説明を読み込み中...

次回通過

Passes for default location (London). Set your location on the main map for personalized predictions.

高度履歴

Loading altitude history...

軌道要素

1 41556U 16033A 26105.96798517 .00003138 00000-0 14233-3 0 9991
2 41556 97.3857 182.9293 0014623 150.1367 210.0706 15.21467311548526
Epoch: Apr 15, 2026 • Age: 7 hours

現在のステータス

高度 511.1 km
速度 7.61 km/s
衛星直下点 -35.87°S, 56.1°E
打ち上げ日 May 30, 2016
運用期間 9.8 years
タイプ other

技術仕様

分類 Payload
質量 2650.00 kg
乾燥質量 2600.00 kg
総質量 2650.00 kg
長さ 2.00 m
直径 2.00 m
スパン 10.00 m
形状 Box + 2 Pan
製造者 CAST
バスタイプ ZY
フェーズステータス In Orbit
所有者/国 GCDX/ZZWYZ/CN

Most Searched